When you browse on this site, cookies collect data to enhance your experience and personalize the content and advertising you see.
Visit our Privacy Policy to learn more. By continuing to use the site, you agree to this use of cookies and data.
  • In Romania
  • List of Countries
  • For 7 days
  • Water Temperature
  • Satellite Maps
  • Weather Map
  • Weather Widgets
  • user-avatar
    Login

    Hourly Weather Dalat

    Today, 13 December, Thursday

    Time Temperature Precipitation Wind Pressure Humidity
    00:00 +17°C° 0.1 mm 2 mps 654 mmHg 95%
    01:00 +18°C° 0 mm 1 mps 654 mmHg 95%
    02:00 +17°C° 0.2 mm 2 mps 654 mmHg 95%
    03:00 +17°C° 0.2 mm 2 mps 654 mmHg 95%
    04:00 +17°C° 0.2 mm 2 mps 654 mmHg 95%
    05:00 +17°C° 0.2 mm 2 mps 654 mmHg 94%
    06:00 +17°C° 0.2 mm 2 mps 654 mmHg 93%
    07:00 +19°C° 0 mm 1 mps 655 mmHg 90%
    08:00 +19°C° 0.1 mm 2 mps 655 mmHg 85%
    09:00 +20°C° 0.1 mm 3 mps 656 mmHg 80%
    10:00 +22°C° 0.1 mm 3 mps 656 mmHg 74%
    11:00 +22°C° 0.2 mm 3 mps 656 mmHg 74%
    12:00 +22°C° 0.2 mm 3 mps 656 mmHg 74%
    13:00 +22°C° 0.2 mm 3 mps 655 mmHg 74%
    14:00 +21°C° 0.1 mm 3 mps 655 mmHg 76%
    15:00 +21°C° 0.1 mm 3 mps 655 mmHg 79%
    16:00 +20°C° 0.1 mm 3 mps 654 mmHg 81%
    17:00 +19°C° 0.1 mm 3 mps 654 mmHg 85%
    18:00 +18°C° 0.1 mm 2 mps 654 mmHg 89%
    19:00 +17°C° 0.1 mm 2 mps 654 mmHg 93%
    20:00 +17°C° 0.1 mm 2 mps 654 mmHg 93%
    21:00 +17°C° 0.1 mm 2 mps 654 mmHg 94%
    22:00 +17°C° 0.1 mm 3 mps 654 mmHg 94%
    23:00 +17°C° 0.2 mm 3 mps 654 mmHg 94%

    Tomorrow, 14 December, Friday

    Time Temperature Precipitation Wind Pressure Humidity
    00:00 +17°C° 0.2 mm 3 mps 654 mmHg 94%
    01:00 +17°C° 0.2 mm 2 mps 654 mmHg 94%
    02:00 +17°C° 0.2 mm 3 mps 654 mmHg 94%
    03:00 +17°C° 0.2 mm 3 mps 654 mmHg 94%
    04:00 +17°C° 0.2 mm 3 mps 654 mmHg 94%
    05:00 +17°C° 0.1 mm 3 mps 654 mmHg 93%
    06:00 +17°C° 0.1 mm 3 mps 654 mmHg 91%
    07:00 +17°C° 0.1 mm 3 mps 654 mmHg 90%
    08:00 +19°C° 0.1 mm 3 mps 655 mmHg 84%
    09:00 +20°C° 0.1 mm 4 mps 655 mmHg 78%
    10:00 +21°C° 0.1 mm 4 mps 656 mmHg 73%
    11:00 +22°C° 0.1 mm 4 mps 656 mmHg 73%
    12:00 +22°C° 0.1 mm 4 mps 655 mmHg 73%
    13:00 +22°C° 0.1 mm 4 mps 655 mmHg 73%
    14:00 +21°C° 0.1 mm 4 mps 654 mmHg 75%
    15:00 +21°C° 0.1 mm 3 mps 654 mmHg 78%
    16:00 +20°C° 0.1 mm 3 mps 654 mmHg 80%
    17:00 +20°C° 0.2 mm 3 mps 654 mmHg 84%
    18:00 +19°C° 0.2 mm 3 mps 654 mmHg 87%
    19:00 +18°C° 0.2 mm 3 mps 654 mmHg 91%
    20:00 +18°C° 0.2 mm 3 mps 654 mmHg 92%
    21:00 +18°C° 0.2 mm 3 mps 654 mmHg 92%
    22:00 +18°C° 0.2 mm 3 mps 654 mmHg 92%
    23:00 +18°C° 0.3 mm 3 mps 654 mmHg 93%

    Day after tomorrow, 15 December, Saturday

    Time Temperature Precipitation Wind Pressure Humidity
    00:00 +18°C° 0.3 mm 3 mps 654 mmHg 93%
    01:00 +18°C° 0.3 mm 2 mps 654 mmHg 94%
    02:00 +18°C° 0.3 mm 2 mps 653 mmHg 94%
    03:00 +18°C° 0.3 mm 2 mps 653 mmHg 94%
    04:00 +18°C° 0.3 mm 2 mps 653 mmHg 94%
    05:00 +18°C° 0.4 mm 2 mps 653 mmHg 93%
    06:00 +18°C° 0.4 mm 2 mps 654 mmHg 93%
    07:00 +18°C° 0.4 mm 2 mps 654 mmHg 92%
    08:00 +19°C° 0.3 mm 3 mps 655 mmHg 88%
    09:00 +20°C° 0.3 mm 3 mps 655 mmHg 84%
    10:00 +21°C° 0.3 mm 3 mps 656 mmHg 79%
    11:00 +21°C° 0.3 mm 3 mps 655 mmHg 79%
    12:00 +22°C° 0.3 mm 3 mps 655 mmHg 79%
    13:00 +22°C° 0.3 mm 3 mps 654 mmHg 78%
    14:00 +21°C° 0.3 mm 3 mps 654 mmHg 79%
    15:00 +21°C° 0.3 mm 3 mps 653 mmHg 81%
    16:00 +20°C° 0.3 mm 3 mps 653 mmHg 82%
    17:00 +20°C° 0.1 mm 2 mps 653 mmHg 85%
    18:00 +19°C° 0.1 mm 2 mps 653 mmHg 88%
    19:00 +18°C° 0.1 mm 2 mps 654 mmHg 91%
    20:00 +18°C° 0 mm 2 mps 654 mmHg 91%
    21:00 +17°C° 0 mm 2 mps 654 mmHg 92%
    22:00 +17°C° 0 mm 2 mps 654 mmHg 92%
    23:00 +17°C° 0 mm 2 mps 654 mmHg 92%

    16 December, Sunday

    Time Temperature Precipitation Wind Pressure Humidity
    00:00 +17°C° 0 mm 2 mps 654 mmHg 92%
    01:00 +17°C° 0 mm 2 mps 654 mmHg 92%
    02:00 +17°C° 0.1 mm 2 mps 653 mmHg 93%
    03:00 +17°C° 0.1 mm 2 mps 653 mmHg 93%
    04:00 +17°C° 0.1 mm 2 mps 653 mmHg 93%
    05:00 +17°C° 0 mm 2 mps 654 mmHg 92%
    06:00 +18°C° 0 mm 2 mps 654 mmHg 91%
    07:00 +18°C° 0 mm 2 mps 655 mmHg 90%
    08:00 +19°C° 0.1 mm 3 mps 655 mmHg 84%
    09:00 +21°C° 0.1 mm 3 mps 656 mmHg 78%
    10:00 +22°C° 0.1 mm 4 mps 656 mmHg 72%
    11:00 +22°C° 0.1 mm 4 mps 656 mmHg 72%
    12:00 +22°C° 0.1 mm 4 mps 655 mmHg 71%
    13:00 +23°C° 0.1 mm 4 mps 655 mmHg 71%
    14:00 +22°C° 0.1 mm 3 mps 654 mmHg 74%
    15:00 +21°C° 0.1 mm 3 mps 654 mmHg 77%
    16:00 +20°C° 0.1 mm 3 mps 653 mmHg 80%
    17:00 +19°C° 0 mm 3 mps 654 mmHg 84%
    18:00 +18°C° 0 mm 2 mps 654 mmHg 87%
    19:00 +18°C° 0 mm 2 mps 654 mmHg 91%
    20:00 +17°C° 0 mm 2 mps 654 mmHg 91%
    21:00 +17°C° 0 mm 2 mps 654 mmHg 92%
    22:00 +17°C° 0 mm 2 mps 655 mmHg 92%
    23:00 +17°C° 0 mm 2 mps 654 mmHg 92%

    17 December, Monday

    Time Temperature Precipitation Wind Pressure Humidity
    00:00 +17°C° 0 mm 2 mps 654 mmHg 91%
    01:00 +17°C° 0 mm 2 mps 653 mmHg 91%
    02:00 +17°C° 0 mm 2 mps 653 mmHg 91%
    03:00 +17°C° 0 mm 2 mps 653 mmHg 91%
    04:00 +17°C° 0 mm 2 mps 653 mmHg 91%
    05:00 +17°C° 0 mm 3 mps 653 mmHg 90%
    06:00 +17°C° 0 mm 3 mps 654 mmHg 89%
    07:00 +18°C° 0 mm 3 mps 654 mmHg 88%
    08:00 +19°C° 0 mm 3 mps 655 mmHg 83%
    09:00 +20°C° 0 mm 3 mps 655 mmHg 79%
    10:00 +21°C° 0 mm 4 mps 656 mmHg 75%
    11:00 +21°C° 0.1 mm 4 mps 655 mmHg 73%
    12:00 +21°C° 0.1 mm 4 mps 655 mmHg 71%
    13:00 +22°C° 0.1 mm 3 mps 654 mmHg 70%
    14:00 +21°C° 0 mm 3 mps 654 mmHg 70%
    15:00 +21°C° 0 mm 3 mps 654 mmHg 70%
    16:00 +21°C° 0 mm 3 mps 653 mmHg 70%
    17:00 +19°C° 0 mm 3 mps 654 mmHg 76%
    18:00 +18°C° 0 mm 2 mps 654 mmHg 81%
    19:00 +17°C° 0 mm 2 mps 654 mmHg 87%
    20:00 +16°C° 0 mm 2 mps 654 mmHg 88%
    21:00 +16°C° 0 mm 2 mps 654 mmHg 89%
    22:00 +16°C° 0 mm 2 mps 654 mmHg 90%
    23:00 +16°C° 0 mm 2 mps 654 mmHg 90%

    18 December, Tuesday

    Time Temperature Precipitation Wind Pressure Humidity
    00:00 +16°C° 0 mm 2 mps 653 mmHg 90%
    01:00 +16°C° 0 mm 2 mps 653 mmHg 90%
    02:00 +16°C° 0 mm 2 mps 653 mmHg 91%
    03:00 +16°C° 0 mm 2 mps 653 mmHg 91%
    04:00 +16°C° 0 mm 2 mps 652 mmHg 91%
    05:00 +16°C° 0 mm 2 mps 653 mmHg 90%
    06:00 +17°C° 0 mm 2 mps 653 mmHg 88%
    07:00 +17°C° 0 mm 2 mps 654 mmHg 87%
    08:00 +19°C° 0 mm 2 mps 654 mmHg 80%
    09:00 +21°C° 0 mm 3 mps 655 mmHg 73%
    10:00 +22°C° 0 mm 3 mps 656 mmHg 66%
    11:00 +24°C° 0 mm 3 mps 655 mmHg 65%
    12:00 +24°C° 0 mm 3 mps 655 mmHg 64%
    13:00 +25°C° 0 mm 3 mps 654 mmHg 64%
    14:00 +24°C° 0.1 mm 3 mps 654 mmHg 68%
    15:00 +23°C° 0.1 mm 2 mps 653 mmHg 71%
    16:00 +21°C° 0.1 mm 2 mps 653 mmHg 75%
    17:00 +20°C° 0 mm 2 mps 653 mmHg 81%
    18:00 +19°C° 0 mm 2 mps 653 mmHg 87%
    19:00 +19°C° 0 mm 1 mps 653 mmHg 93%
    20:00 +18°C° 0 mm 1 mps 653 mmHg 94%
    21:00 +18°C° 0 mm 1 mps 654 mmHg 95%
    22:00 +18°C° 0 mm 1 mps 654 mmHg 96%
    23:00 +18°C° 0 mm 1 mps 654 mmHg 96%
    Show more